Location: Beccas
(43.4309°N, 0.1528°E)
Time: 21:10:39
(UTC+00:00)

Cosmos 1980 Rocket - Pass Details

Date: 15 October 2021
Orbit: 828 x 851 km, 71.0° (Epoch: 29 November)

Event Time Altitude Azimuth Distance (km) Brightness Sun altitude
Rises 17:30:12 0° 163° (SSE) 3,372 5.3 -3.4°
Reaches altitude 10° 17:33:09 10° 149° (SSE) 2,447 4.4 -3.9°
Maximum altitude 17:37:18 22° 100° (E) 1,779 3.4 -4.6°
Drops below altitude 10° 17:41:29 10° 53° (NE) 2,472 4.1 -5.4°
Sets 17:44:28 0° 38° (NE) 3,416 4.9 -5.9°
